ONEWEB-0056 (45159 NORAD) Tracking and Keplerian Element Data

This shows tracking and keplerian element data for the satellite.

Feedback or suggestion? Click here.




ElementValue
Catalog45159
NameONEWEB-0056
Epoch Orbit176
Epoch Day189.91668981
Epoch Year2020
RAAN115.4894
Inclination87.4769
Eccentricity0.0020352
Argument of Perigee111.4051
Mean Anonmoly336.4413
Mean Motion14.74819542
Decay Rate-0.00055321
L11 45159U 20008AE 20189.91668981 -.00055321 00000-0 -83138-2 0 9995
L22 45159 87.4769 115.4894 0020352 111.4051 336.4413 14.74819542 1767

Live tracking and technical data element details for ONEWEB-0056 (NORAD 45159). ONEWEB-0056 can be tracked NOW for your location showing map with azimuth and elevation plus other details from your city location.

Track the satellite on the map from your city or location and see movement details for azimuth, elevation, latitude, longitude, range, height, and movement on the map or in text.







IsCatalogInMostPopularTable: catalog: 45159, numindb: 30
Update: records affected: 1



GetName: 45159 ONEWEB-0056

Hit Count: updated at: Fri, 10 Jul 2020 04:00:59 GMT